Time,TemperatureF,DewpointF,PressureIn,WindDirection,WindDirectionDegrees,WindSpeedMPH,WindSpeedGustMPH,Humidity,HourlyPrecipIn,Conditions,Clouds,dailyrainin,SoftwareType,DateUTC
2013-01-10 00:01:00,37.0,36.0,29.64,NNW,331,7.0,-999.0,95,-99.99,,,-99.99,,2013-01-10 08:01:00,
2013-01-10 00:11:00,37.0,36.0,29.64,NNW,331,7.0,-999.0,95,-99.99,,,-99.99,,2013-01-10 08:11:00,
2013-01-10 00:22:00,37.0,36.0,29.65,NE,35,6.0,-999.0,95,-99.99,,,-99.99,,2013-01-10 08:22:00,
2013-01-10 00:32:00,37.0,36.0,29.65,NNW,345,8.0,-999.0,95,-99.99,,,-99.99,,2013-01-10 08:32:00,
2013-01-10 00:42:00,37.0,36.0,29.65,NNW,345,8.0,-999.0,95,-99.99,,,-99.99,,2013-01-10 08:42:00,
2013-01-10 00:52:00,37.0,35.0,29.65,NNE,24,9.0,-999.0,94,-99.99,,,-99.99,,2013-01-10 08:52:00,
2013-01-10 01:02:00,37.0,36.0,29.64,North,5,6.0,-999.0,95,-99.99,,,-99.99,,2013-01-10 09:02:00,
2013-01-10 01:12:00,37.0,36.0,29.64,North,5,6.0,-999.0,95,-99.99,,,-99.99,,2013-01-10 09:12:00,
2013-01-10 01:22:00,37.0,35.0,29.64,NNW,341,5.0,-999.0,94,-99.99,,,-99.99,,2013-01-10 09:22:00,
2013-01-10 01:32:00,37.0,35.0,29.64,NNW,341,5.0,-999.0,94,-99.99,,,-99.99,,2013-01-10 09:32:00,
2013-01-10 01:42:00,37.0,35.0,29.64,NNW,341,5.0,-999.0,94,-99.99,,,-99.99,,2013-01-10 09:42:00,
2013-01-10 01:52:00,37.0,35.0,29.64,NNE,19,5.0,-999.0,94,-99.99,,,-99.99,,2013-01-10 09:52:00,
2013-01-10 02:02:00,37.0,35.0,29.64,NNE,19,5.0,-999.0,94,-99.99,,,-99.99,,2013-01-10 10:02:00,
2013-01-10 02:12:00,37.0,35.0,29.64,NNE,19,5.0,-999.0,94,-99.99,,,-99.99,,2013-01-10 10:12:00,
2013-01-10 02:22:00,37.0,35.0,29.64,NNE,23,6.0,-999.0,93,-99.99,,,-99.99,,2013-01-10 10:22:00,
2013-01-10 02:32:00,37.0,35.0,29.64,NNW,347,2.0,-999.0,93,-99.99,,,-99.99,,2013-01-10 10:32:00,
2013-01-10 02:42:00,37.0,35.0,29.64,NNW,347,2.0,-999.0,93,-99.99,,,-99.99,,2013-01-10 10:42:00,
2013-01-10 02:52:00,37.0,35.0,29.64,North,360,1.0,-999.0,93,-99.99,,,-99.99,,2013-01-10 10:52:00,
2013-01-10 03:02:00,36.0,34.0,29.64,NNE,23,2.0,-999.0,93,-99.99,,,-99.99,,2013-01-10 11:02:00,
2013-01-10 03:12:00,36.0,34.0,29.64,NNE,23,2.0,-999.0,93,-99.99,,,-99.99,,2013-01-10 11:12:00,
2013-01-10 03:22:00,37.0,35.0,29.64,NNE,17,5.0,-999.0,94,-99.99,,,-99.99,,2013-01-10 11:22:00,
2013-01-10 03:32:00,37.0,35.0,29.63,North,5,0.0,-999.0,94,-99.99,,,-99.99,,2013-01-10 11:32:00,
2013-01-10 03:42:00,37.0,35.0,29.63,North,5,0.0,-999.0,94,-99.99,,,-99.99,,2013-01-10 11:42:00,
2013-01-10 03:52:00,37.0,35.0,29.65,NNW,345,4.0,-999.0,94,-99.99,,,-99.99,,2013-01-10 11:52:00,
2013-01-10 04:02:00,36.0,34.0,29.64,NNE,19,4.0,-999.0,93,-99.99,,,-99.99,,2013-01-10 12:02:00,
2013-01-10 04:12:00,36.0,34.0,29.64,NNE,19,4.0,-999.0,93,-99.99,,,-99.99,,2013-01-10 12:12:00,
2013-01-10 04:22:00,36.0,34.0,29.64,NNE,30,2.0,-999.0,93,-99.99,,,-99.99,,2013-01-10 12:22:00,
2013-01-10 04:32:00,36.0,34.0,29.63,NE,34,6.0,-999.0,93,-99.99,,,-99.99,,2013-01-10 12:32:00,
2013-01-10 04:42:00,36.0,34.0,29.63,NE,34,6.0,-999.0,93,-99.99,,,-99.99,,2013-01-10 12:42:00,
2013-01-10 04:52:00,36.0,34.0,29.63,NE,36,7.0,-999.0,92,-99.99,,,-99.99,,2013-01-10 12:52:00,
2013-01-10 05:02:00,36.0,34.0,29.63,NNE,20,9.0,-999.0,91,-99.99,,,-99.99,,2013-01-10 13:02:00,
2013-01-10 05:12:00,36.0,34.0,29.63,NNE,20,9.0,-999.0,91,-99.99,,,-99.99,,2013-01-10 13:12:00,
2013-01-10 05:22:00,36.0,34.0,29.62,WNW,292,2.0,-999.0,91,-99.99,,,-99.99,,2013-01-10 13:22:00,
2013-01-10 05:32:00,36.0,34.0,29.64,North,351,3.0,-999.0,92,-99.99,,,-99.99,,2013-01-10 13:32:00,
2013-01-10 05:42:00,36.0,34.0,29.64,North,351,3.0,-999.0,92,-99.99,,,-99.99,,2013-01-10 13:42:00,
2013-01-10 05:52:00,36.0,34.0,29.64,NNE,14,5.0,-999.0,93,-99.99,,,-99.99,,2013-01-10 13:52:00,
2013-01-10 06:02:00,36.0,34.0,29.65,North,360,5.0,-999.0,94,-99.99,,,-99.99,,2013-01-10 14:02:00,
2013-01-10 06:12:00,36.0,34.0,29.65,North,360,5.0,-999.0,94,-99.99,,,-99.99,,2013-01-10 14:12:00,
2013-01-10 06:22:00,36.0,34.0,29.65,NNW,345,2.0,-999.0,94,-99.99,,,-99.99,,2013-01-10 14:22:00,
2013-01-10 06:32:00,34.0,32.0,29.65,North,349,10.0,-999.0,93,-99.99,,,-99.99,,2013-01-10 14:32:00,
2013-01-10 06:43:00,34.0,32.0,29.65,North,349,10.0,-999.0,93,-99.99,,,-99.99,,2013-01-10 14:43:00,
2013-01-10 06:52:00,33.0,31.0,29.65,NNE,13,6.0,-999.0,94,-99.99,,,-99.99,,2013-01-10 14:52:00,
2013-01-10 07:03:00,33.0,31.0,29.66,North,9,2.0,-999.0,94,-99.99,,,-99.99,,2013-01-10 15:03:00,
2013-01-10 07:12:00,33.0,31.0,29.66,North,9,2.0,-999.0,94,-99.99,,,-99.99,,2013-01-10 15:12:00,
2013-01-10 07:22:00,34.0,32.0,29.67,NNE,15,2.0,-999.0,94,-99.99,,,-99.99,,2013-01-10 15:22:00,
2013-01-10 07:32:00,34.0,32.0,29.67,NNW,338,4.0,-999.0,94,-99.99,,,-99.99,,2013-01-10 15:32:00,
2013-01-10 07:43:00,34.0,32.0,29.67,NNW,338,4.0,-999.0,94,-99.99,,,-99.99,,2013-01-10 15:43:00,
2013-01-10 07:52:00,34.0,32.0,29.67,NNW,338,4.0,-999.0,94,-99.99,,,-99.99,,2013-01-10 15:52:00,
2013-01-10 08:02:00,34.0,32.0,29.67,NNW,344,0.0,-999.0,93,-99.99,,,-99.99,,2013-01-10 16:02:00,
2013-01-10 08:12:00,34.0,32.0,29.67,NNW,344,0.0,-999.0,93,-99.99,,,-99.99,,2013-01-10 16:12:00,
2013-01-10 08:22:00,34.0,32.0,29.68,NW,316,0.0,-999.0,93,-99.99,,,-99.99,,2013-01-10 16:22:00,
2013-01-10 08:33:00,35.0,33.0,29.68,North,355,2.0,-999.0,93,-99.99,,,-99.99,,2013-01-10 16:33:00,
2013-01-10 08:42:00,35.0,33.0,29.68,North,355,2.0,-999.0,93,-99.99,,,-99.99,,2013-01-10 16:42:00,
2013-01-10 08:52:00,35.0,33.0,29.68,North,360,1.0,-999.0,93,-99.99,,,-99.99,,2013-01-10 16:52:00,
2013-01-10 09:02:00,36.0,34.0,29.68,NNE,13,0.0,-999.0,94,-99.99,,,-99.99,,2013-01-10 17:02:00,
2013-01-10 09:12:00,36.0,34.0,29.68,NNE,13,0.0,-999.0,94,-99.99,,,-99.99,,2013-01-10 17:12:00,
2013-01-10 09:22:00,36.0,34.0,29.68,North,350,0.0,-999.0,93,-99.99,,,-99.99,,2013-01-10 17:22:00,
2013-01-10 09:33:00,37.0,35.0,29.68,North,351,0.0,-999.0,92,-99.99,,,-99.99,,2013-01-10 17:33:00,
2013-01-10 09:42:00,37.0,35.0,29.68,North,351,0.0,-999.0,92,-99.99,,,-99.99,,2013-01-10 17:42:00,
2013-01-10 09:52:00,38.0,36.0,29.69,NNW,340,1.0,-999.0,92,-99.99,,,-99.99,,2013-01-10 17:52:00,
2013-01-10 10:03:00,38.0,36.0,29.69,NNW,340,1.0,-999.0,92,-99.99,,,-99.99,,2013-01-10 18:03:00,
2013-01-10 10:12:00,38.0,36.0,29.69,NNW,340,1.0,-999.0,92,-99.99,,,-99.99,,2013-01-10 18:12:00,
2013-01-10 10:22:00,38.0,36.0,29.69,NNW,340,1.0,-999.0,92,-99.99,,,-99.99,,2013-01-10 18:22:00,
2013-01-10 10:33:00,39.0,37.0,29.68,West,279,4.0,-999.0,91,-99.99,,,-99.99,,2013-01-10 18:33:00,
2013-01-10 10:43:00,38.0,35.0,29.68,NW,325,4.0,-999.0,89,-99.99,,,-99.99,,2013-01-10 18:43:00,
2013-01-10 10:53:00,38.0,35.0,29.68,NW,325,4.0,-999.0,89,-99.99,,,-99.99,,2013-01-10 18:53:00,
2013-01-10 11:02:00,38.0,36.0,29.68,NNW,339,5.0,-999.0,92,-99.99,,,-99.99,,2013-01-10 19:02:00,
2013-01-10 11:12:00,39.0,37.0,29.68,North,5,5.0,-999.0,94,-99.99,,,-99.99,,2013-01-10 19:12:00,
2013-01-10 11:22:00,39.0,37.0,29.68,North,5,5.0,-999.0,94,-99.99,,,-99.99,,2013-01-10 19:22:00,
2013-01-10 11:32:00,38.0,36.0,29.67,NNE,16,5.0,-999.0,92,-99.99,,,-99.99,,2013-01-10 19:32:00,
2013-01-10 11:43:00,38.0,36.0,29.67,NNE,16,5.0,-999.0,92,-99.99,,,-99.99,,2013-01-10 19:43:00,
2013-01-10 11:52:00,38.0,36.0,29.67,NE,56,9.0,-999.0,91,-99.99,,,-99.99,,2013-01-10 19:52:00,
2013-01-10 12:02:00,39.0,36.0,29.66,North,360,5.0,-999.0,90,-99.99,,,-99.99,,2013-01-10 20:02:00,
2013-01-10 12:12:00,39.0,36.0,29.66,North,360,5.0,-999.0,90,-99.99,,,-99.99,,2013-01-10 20:12:00,
2013-01-10 12:22:00,39.0,36.0,29.66,NNE,24,9.0,-999.0,89,-99.99,,,-99.99,,2013-01-10 20:22:00,
2013-01-10 12:32:00,38.0,34.0,29.65,North,350,10.0,-999.0,86,-99.99,,,-99.99,,2013-01-10 20:32:00,
2013-01-10 12:42:00,38.0,34.0,29.65,North,350,10.0,-999.0,86,-99.99,,,-99.99,,2013-01-10 20:42:00,
2013-01-10 12:52:00,39.0,35.0,29.65,North,355,8.0,-999.0,85,-99.99,,,-99.99,,2013-01-10 20:52:00,
2013-01-10 13:02:00,39.0,35.0,29.65,North,5,11.0,-999.0,84,-99.99,,,-99.99,,2013-01-10 21:02:00,
2013-01-10 13:12:00,38.0,33.0,29.65,NNW,348,12.0,-999.0,81,-99.99,,,-99.99,,2013-01-10 21:12:00,
2013-01-10 13:22:00,38.0,33.0,29.65,NNW,348,12.0,-999.0,81,-99.99,,,-99.99,,2013-01-10 21:22:00,
2013-01-10 13:32:00,39.0,33.0,29.65,North,355,11.0,-999.0,80,-99.99,,,-99.99,,2013-01-10 21:32:00,
2013-01-10 13:42:00,39.0,33.0,29.65,North,355,11.0,-999.0,80,-99.99,,,-99.99,,2013-01-10 21:42:00,
2013-01-10 13:52:00,39.0,34.0,29.65,NNE,26,8.0,-999.0,82,-99.99,,,-99.99,,2013-01-10 21:52:00,
2013-01-10 14:03:00,38.0,33.0,29.65,NNE,25,10.0,-999.0,81,-99.99,,,-99.99,,2013-01-10 22:03:00,
2013-01-10 14:12:00,38.0,34.0,29.65,North,355,10.0,-999.0,85,-99.99,,,-99.99,,2013-01-10 22:12:00,
2013-01-10 14:22:00,38.0,34.0,29.65,North,355,10.0,-999.0,85,-99.99,,,-99.99,,2013-01-10 22:22:00,
2013-01-10 14:32:00,38.0,34.0,29.65,NW,304,10.0,-999.0,85,-99.99,,,-99.99,,2013-01-10 22:32:00,
2013-01-10 14:42:00,38.0,34.0,29.65,NW,304,10.0,-999.0,85,-99.99,,,-99.99,,2013-01-10 22:42:00,
2013-01-10 15:02:00,39.0,34.0,29.65,West,271,9.0,-999.0,81,-99.99,,,-99.99,,2013-01-10 23:02:00,
2013-01-10 15:12:00,38.0,33.0,29.65,ENE,76,12.0,-999.0,83,-99.99,,,-99.99,,2013-01-10 23:12:00,
2013-01-10 15:22:00,38.0,33.0,29.65,ENE,76,12.0,-999.0,83,-99.99,,,-99.99,,2013-01-10 23:22:00,
2013-01-10 15:32:00,38.0,34.0,29.66,NNW,341,9.0,-999.0,84,-99.99,,,-99.99,,2013-01-10 23:32:00,
2013-01-10 15:42:00,38.0,34.0,29.66,NNW,341,9.0,-999.0,84,-99.99,,,-99.99,,2013-01-10 23:42:00,
2013-01-10 15:52:00,38.0,33.0,29.66,North,5,12.0,-999.0,82,-99.99,,,-99.99,,2013-01-10 23:52:00,
2013-01-10 16:02:00,38.0,34.0,29.67,NNW,346,9.0,-999.0,84,-99.99,,,-99.99,,2013-01-11 00:02:00,
2013-01-10 16:12:00,38.0,34.0,29.66,North,355,10.0,-999.0,84,-99.99,,,-99.99,,2013-01-11 00:12:00,
2013-01-10 16:22:00,38.0,34.0,29.66,North,355,10.0,-999.0,84,-99.99,,,-99.99,,2013-01-11 00:22:00,
2013-01-10 16:32:00,38.0,34.0,29.67,NNW,339,9.0,-999.0,85,-99.99,,,-99.99,,2013-01-11 00:32:00,
2013-01-10 16:42:00,38.0,34.0,29.67,NNW,339,9.0,-999.0,85,-99.99,,,-99.99,,2013-01-11 00:42:00,
2013-01-10 16:52:00,38.0,34.0,29.67,North,9,8.0,-999.0,85,-99.99,,,-99.99,,2013-01-11 00:52:00,
2013-01-10 17:02:00,38.0,34.0,29.67,North,355,9.0,-999.0,85,-99.99,,,-99.99,,2013-01-11 01:02:00,
2013-01-10 17:12:00,38.0,34.0,29.68,NNE,25,8.0,-999.0,85,-99.99,,,-99.99,,2013-01-11 01:12:00,
2013-01-10 17:22:00,38.0,34.0,29.68,NNE,25,8.0,-999.0,85,-99.99,,,-99.99,,2013-01-11 01:22:00,
2013-01-10 17:33:00,38.0,33.0,29.68,North,355,8.0,-999.0,83,-99.99,,,-99.99,,2013-01-11 01:33:00,
2013-01-10 17:42:00,38.0,33.0,29.68,North,355,8.0,-999.0,83,-99.99,,,-99.99,,2013-01-11 01:42:00,
2013-01-10 17:52:00,38.0,34.0,29.68,NNW,334,9.0,-999.0,84,-99.99,,,-99.99,,2013-01-11 01:52:00,
2013-01-10 18:02:00,37.0,33.0,29.70,NNE,13,7.0,-999.0,85,-99.99,,,-99.99,,2013-01-11 02:02:00,
2013-01-10 18:12:00,37.0,33.0,29.70,NNE,13,7.0,-999.0,85,-99.99,,,-99.99,,2013-01-11 02:12:00,
2013-01-10 18:22:00,37.0,33.0,29.70,NNW,341,8.0,-999.0,86,-99.99,,,-99.99,,2013-01-11 02:22:00,
2013-01-10 18:32:00,38.0,34.0,29.70,NNW,334,7.0,-999.0,86,-99.99,,,-99.99,,2013-01-11 02:32:00,
2013-01-10 18:42:00,38.0,34.0,29.70,NNW,334,7.0,-999.0,86,-99.99,,,-99.99,,2013-01-11 02:42:00,
2013-01-10 18:52:00,38.0,34.0,29.70,NNE,20,9.0,-999.0,86,-99.99,,,-99.99,,2013-01-11 02:52:00,
2013-01-10 19:02:00,38.0,34.0,29.71,NNE,25,7.0,-999.0,86,-99.99,,,-99.99,,2013-01-11 03:02:00,
2013-01-10 19:11:00,38.0,34.0,29.71,North,360,9.0,-999.0,86,-99.99,,,-99.99,,2013-01-11 03:11:00,
2013-01-10 19:22:00,38.0,34.0,29.71,North,360,9.0,-999.0,86,-99.99,,,-99.99,,2013-01-11 03:22:00,
2013-01-10 19:33:00,38.0,34.0,29.72,ENE,60,9.0,-999.0,85,-99.99,,,-99.99,,2013-01-11 03:33:00,
2013-01-10 19:42:00,38.0,34.0,29.72,ENE,60,9.0,-999.0,85,-99.99,,,-99.99,,2013-01-11 03:42:00,
2013-01-10 19:52:00,38.0,34.0,29.72,NNE,21,9.0,-999.0,85,-99.99,,,-99.99,,2013-01-11 03:52:00,
2013-01-10 20:02:00,38.0,34.0,29.73,NNW,338,8.0,-999.0,84,-99.99,,,-99.99,,2013-01-11 04:02:00,
2013-01-10 20:11:00,38.0,34.0,29.73,NNW,338,8.0,-999.0,84,-99.99,,,-99.99,,2013-01-11 04:11:00,
2013-01-10 20:22:00,38.0,34.0,29.73,NNW,338,8.0,-999.0,84,-99.99,,,-99.99,,2013-01-11 04:22:00,
2013-01-10 20:32:00,38.0,34.0,29.74,NNE,22,7.0,-999.0,86,-99.99,,,-99.99,,2013-01-11 04:32:00,
2013-01-10 20:42:00,38.0,34.0,29.74,NNE,22,7.0,-999.0,86,-99.99,,,-99.99,,2013-01-11 04:42:00,
2013-01-10 20:53:00,38.0,34.0,29.74,North,5,8.0,-999.0,86,-99.99,,,-99.99,,2013-01-11 04:53:00,
2013-01-10 21:03:00,38.0,34.0,29.75,NNE,32,4.0,-999.0,87,-99.99,,,-99.99,,2013-01-11 05:03:00,
2013-01-10 21:12:00,38.0,34.0,29.75,NNE,32,4.0,-999.0,87,-99.99,,,-99.99,,2013-01-11 05:12:00,
2013-01-10 21:22:00,38.0,34.0,29.75,NNE,25,6.0,-999.0,86,-99.99,,,-99.99,,2013-01-11 05:22:00,
2013-01-10 21:33:00,38.0,34.0,29.75,NNE,25,6.0,-999.0,86,-99.99,,,-99.99,,2013-01-11 05:33:00,
2013-01-10 21:42:00,38.0,34.0,29.75,NNE,25,6.0,-999.0,86,-99.99,,,-99.99,,2013-01-11 05:42:00,
2013-01-10 21:52:00,38.0,34.0,29.75,NE,36,4.0,-999.0,87,-99.99,,,-99.99,,2013-01-11 05:52:00,
2013-01-10 22:02:00,38.0,34.0,29.75,NNW,344,5.0,-999.0,87,-99.99,,,-99.99,,2013-01-11 06:02:00,
2013-01-10 22:12:00,38.0,34.0,29.75,NNW,344,5.0,-999.0,87,-99.99,,,-99.99,,2013-01-11 06:12:00,
2013-01-10 22:22:00,38.0,34.0,29.76,NNW,341,6.0,-999.0,87,-99.99,,,-99.99,,2013-01-11 06:22:00,
2013-01-10 22:32:00,38.0,34.0,29.76,NNE,24,8.0,-999.0,86,-99.99,,,-99.99,,2013-01-11 06:32:00,
2013-01-10 22:42:00,38.0,34.0,29.76,NNE,24,8.0,-999.0,86,-99.99,,,-99.99,,2013-01-11 06:42:00,
2013-01-10 22:52:00,37.0,34.0,29.76,NW,309,8.0,-999.0,87,-99.99,,,-99.99,,2013-01-11 06:52:00,
2013-01-10 23:02:00,37.0,34.0,29.76,NW,309,8.0,-999.0,87,-99.99,,,-99.99,,2013-01-11 07:02:00,
2013-01-10 23:11:00,37.0,34.0,29.76,North,9,9.0,-999.0,87,-99.99,,,-99.99,,2013-01-11 07:11:00,
2013-01-10 23:22:00,37.0,34.0,29.76,North,9,9.0,-999.0,87,-99.99,,,-99.99,,2013-01-11 07:22:00,
2013-01-10 23:32:00,37.0,34.0,29.76,NNE,23,9.0,-999.0,87,-99.99,,,-99.99,,2013-01-11 07:32:00,
2013-01-10 23:42:00,37.0,34.0,29.77,North,10,7.0,-999.0,87,-99.99,,,-99.99,,2013-01-11 07:42:00,
2013-01-10 23:52:00,37.0,34.0,29.77,North,10,7.0,-999.0,87,-99.99,,,-99.99,,2013-01-11 07:52:00,